Weather History for Reno, NV

Change the Weather History Date:

Tuesday, April 23, 2013

  Actual Average Record
Temperature  
Mean Temperature 53 °F 53 °F  
Max Temperature 65 °F 66 °F 84 °F (1910)
Min Temperature 40 °F 39 °F 19 °F (1958)
Degree Days  
Heating Degree Days 12 13  
Month to date heating degree days 302 347  
Since 1 July heating degree days 4263 4583  
Cooling Degree Days 0 0  
Month to date cooling degree days 0 0  
Year to date cooling degree days 0 0  
Growing Degree Days 2 (Base 50)    
Moisture  
Dew Point 8 °F    
Average Humidity 19    
Maximum Humidity 27    
Minimum Humidity 10    
Precipitation  
Precipitation 0.00 in 0.02 in 0.14 in (1971)
Month to date precipitation 0.23 0.36  
Year to date precipitation 0.64 3.17  
Snow  
Snow 0.00 in 0.00 in 9.40 in (1931)
Month to date snowfall T 0.4  
Since 1 July snowfall 9.4 21.4  
Snow Depth 0.00 in    
Sea Level Pressure  
Sea Level Pressure 30.06 in    
Wind  
Wind Speed 6 mph (ESE)    
Max Wind Speed 16 mph    
Max Gust Speed 22 mph    
Visibility 10 miles    
Events      
T = Trace of Precipitation, MM = Missing Value Source: NWS Daily Summary

Daily Weather History Graph

Daily Weather History Graph

Search for Another Location

Airport:

Trip Planner

Search our weather history database for the weather conditions in past years. The results will help you decide how hot, cold, wet, or windy it might be!

Date:

Astronomy

Apr. 23, 2013 Rise Set
Actual Time 6:10 AM PDT 7:45 PM PDT
Civil Twilight 5:41 AM PDT 8:13 PM PDT
Nautical Twilight 5:07 AM PDT 8:48 PM PDT
Astronomical Twilight 4:31 AM PDT 9:24 PM PDT
Moon 5:46 PM PDT (4/23) 4:40 AM PDT (4/23)
Length of Visible Light 14h 32m
Length of Day
13h 35m
Waxing Gibbous, 94% of the Moon is Illuminated
Apr 23
Waxing Gibbous
Apr 25
Full
May 2
Last Quarter
May 9
New
May 17
First Quarter

Hourly Weather History & Observations

Time (PDT) Temp. Windchill Dew Point Humidity Pressure Visibility Wind Dir Wind Speed Gust Speed Precip Events Conditions
12:55 AM 48.0 °F - 9.0 °F 21% 30.15 in 10.0 mi SSE 5.8 mph - N/A   Clear
1:55 AM 46.0 °F - 9.0 °F 22% 30.14 in 10.0 mi Calm Calm - N/A   Clear
2:55 AM 46.0 °F 41.9 °F 7.0 °F 20% 30.13 in 10.0 mi SSE 8.1 mph - N/A   Clear
3:55 AM 43.0 °F 38.8 °F 10.0 °F 26% 30.15 in 10.0 mi SE 6.9 mph - N/A   Clear
4:55 AM 42.1 °F 38.4 °F 7.0 °F 24% 30.14 in 10.0 mi SE 5.8 mph - N/A   Clear
5:55 AM 43.0 °F 38.8 °F 7.0 °F 23% 30.15 in 10.0 mi SE 6.9 mph - N/A   Clear
6:55 AM 43.0 °F 40.3 °F 6.1 °F 22% 30.17 in 10.0 mi East 4.6 mph - N/A   Clear
7:55 AM 45.0 °F 41.8 °F 7.0 °F 21% 30.18 in 10.0 mi SSE 5.8 mph - N/A   Clear
8:55 AM 48.9 °F - 8.1 °F 19% 30.17 in 10.0 mi SSE 9.2 mph - N/A   Clear
9:55 AM 51.1 °F - 7.0 °F 17% 30.16 in 10.0 mi ESE 10.4 mph - N/A   Clear
10:55 AM 53.1 °F - 7.0 °F 16% 30.14 in 10.0 mi SSE 10.4 mph 16.1 mph N/A   Clear
11:55 AM 55.9 °F - 7.0 °F 14% 30.12 in 10.0 mi SE 8.1 mph - N/A   Clear
12:55 PM 57.9 °F - 7.0 °F 13% 30.06 in 10.0 mi Variable 6.9 mph - N/A   Partly Cloudy
1:55 PM 61.0 °F - 8.1 °F 12% 30.02 in 10.0 mi ENE 10.4 mph 18.4 mph N/A   Partly Cloudy
2:55 PM 63.0 °F - 8.1 °F 11% 29.99 in 10.0 mi Variable 4.6 mph - N/A   Clear
3:55 PM 64.0 °F - 7.0 °F 11% 29.96 in 10.0 mi ESE 5.8 mph - N/A   Partly Cloudy
4:55 PM 64.0 °F - 6.1 °F 10% 29.94 in 10.0 mi Variable 4.6 mph - N/A   Partly Cloudy
5:55 PM 64.0 °F - 7.0 °F 11% 29.93 in 10.0 mi SE 3.5 mph - N/A   Clear
6:55 PM 64.0 °F - 6.1 °F 10% 29.92 in 10.0 mi East 6.9 mph - N/A   Clear
7:55 PM 61.0 °F - 7.0 °F 12% 29.93 in 10.0 mi NE 8.1 mph - N/A   Clear
8:55 PM 57.0 °F - 6.1 °F 13% 29.95 in 10.0 mi NNE 5.8 mph - N/A   Clear
9:55 PM 54.0 °F - 7.0 °F 15% 29.96 in 10.0 mi North 4.6 mph - N/A   Clear
10:55 PM 53.1 °F - 10.0 °F 18% 29.97 in 10.0 mi NW 3.5 mph - N/A   Clear
11:55 PM 50.0 °F - 12.9 °F 23% 29.97 in 10.0 mi Calm Calm - N/A   Clear